Regional Weather Roundup
Issued by NWS Northern Indiana

Home | Current Version | Previous Version | Text Only | Print | Product List | Glossary Off
Versions: 1 2 3 4 5 6 7 8 9 10 11 12 13 14 15 16 17 18 19 20 21 22 23 24 25 26 27 28 29 30 31 32 33 34 35 36 37 38 39 40 41 42 43 44 45 46 47 48 49 50

000
ASUS43 KIWX 192300
RWRIWX

KIWX WEATHER ROUNDUP
NATIONAL WEATHER SERVICE NORTHERN INDIANA
600 PM EST SUN FEB 19 2017

NOTE: "FAIR" INDICATES FEW OR NO CLOUDS BELOW 12,000 FEET WITH NO
SIGNIFICANT WEATHER AND/OR OBSTRUCTIONS TO VISIBILITY.

* THESE STATIONS ARE NOT UNDER NWS QUALITY CONTROL. THEY ALSO MAY NOT
  REPORT WEATHER SUCH AS PRECIPITATION OR FOG.

INZ001>027-200000-
NORTHERN INDIANA

CITY           SKY/WX    TMP DP  RH WIND       PRES   REMARKS
KNOX*          CLEAR     61   1   9 CALM      30.08R
SOUTH BEND     CLEAR     56  26  31 N7        30.09R
ELKHART*       CLEAR     61  25  25 NW6       30.08R
GOSHEN         CLEAR     59  32  36 W7        30.07R
MONTICELLO*    CLEAR     62  43  49 CALM      30.07S
WARSAW*        CLEAR     59  32  36 W5        30.09R
ANGOLA*        CLEAR     63  54  72 NW5       30.06S
FORT WAYNE     PTCLDY    58  36  43 W8        30.09R
PERU/GRISSOM   CLEAR     61  44  54 CALM      30.08R

$$
INZ028>050-200000-
CENTRAL INDIANA

CITY           SKY/WX    TMP DP  RH WIND       PRES   REMARKS
LAFAYETTE      CLEAR     62  43  49 CALM      30.08R
KOKOMO*        CLEAR     61  45  55 NW3       30.10R
MUNCIE*        CLEAR     62  43  49 W3        30.09R
INDIANAPOLIS   PTCLDY    61  43  51 W6        30.09S

$$
MIZ043>046-050>051-056>058-064>065-071>073-077>080-200000-
SOUTHWEST LOWER MICHIGAN

CITY           SKY/WX    TMP DP  RH WIND       PRES   REMARKS
BATTLE CREEK   CLEAR     59  27  29 NW8       30.07R
BENTON HARBOR  CLEAR     54  28  36 CALM      30.09R
COLDWATER*     CLEAR     59  28  30 W3        30.07R
HILLSDALE*     CLEAR     57  30  35 W8        30.05S
HOLLAND        CLOUDY    51  34  52 CALM      30.09R
GRAND RAPIDS   MOCLDY    57  29  34 W9        30.07R
KALAMAZOO      CLEAR     58  23  26 NW7       30.08R
STURGIS*       CLEAR     60  30  31 NW3       30.06R
THREE RIVERS*  FAIR      59  28  30 NW6       30.08R

$$
OHZ001>008-015>018-024>025-200000-
NORTHWEST OHIO

CITY           SKY/WX    TMP DP  RH WIND       PRES   REMARKS
DEFIANCE       PTCLDY    60  31  33 CALM      30.07R
FINDLAY        CLEAR     59  35  40 W7        30.06R
TOLEDO EXPRESS PTCLDY    60  30  32 W6        30.05S
TOLEDO METCALF CLEAR     59  33  37 W6        30.06R
LIMA           CLEAR     59  36  42 W7        30.08R

$$
AND FOR LAKE MICHIGAN COASTAL AND OPEN LAKE BUOY OBSERVATIONS

STATION/POSITION TEMP    WIND        PRES    VSBY  WAVE
                 AIR SEA DIR/SP/G                  HT/PER
                 (F)     (DEG/KT/KT) (MB)    (MI)  (FT/S)
CALUMET HARBOR    44      90/  7/  8 1017.7S
MICHIGAN CITY     40      40/ 10/ 11   N/A
BURNS HARBOR      41      80/  9/ 11 1019.0R

$$
&&




USA.gov is the U.S. government's official web portal to all federal, state and local government web resources and services.